Погода в Кичи-Балыке

Россия / Карачаево-Черкесская Республика     43°47′20″N   42°39′00″E
темп.,
°C
ветер,
м/с
пор.,
м/с
влажн.,
%
обл.,
%
осадки,
мм/ч
давл.,
гПа
погр.,
м
11 апреля, вс
вс1100:00+1ссв1196100 0.0 1018105
03:00+1в1196100 0.0 1018203
06:00+1в119883 0.0 1017117
09:00+3всв2291100 0.0 1017315
12:00+3всв3293100 0.0 1016356
15:00+3вюв1292100 0.1 1016283
18:00+3вюв2295100 0.1 1016243
21:00+3св119699 0.1 101677
12 апреля, пн
пн1200:00+4зсз1193100 0.0 101519
03:00+3зсз2294100 0.0 101624
06:00+3зсз119590 0.0 101729
09:00+3с1197100 0.0 1019190
12:00+3ссв2197100 0.1 1019433
15:00+3ссв2298100 0.1 1020286
18:00+2ссв1198100 0.5 1021282
21:00+3в2299100 0.6 1021265
13 апреля, вт
вт1300:00+2св2199100 0.1 1020297
03:00+3сз1193100 0.8 1020150
06:00+3в0187100 0.0 102184
09:00+6св327689 0.0 1019766
12:00+4св2393100 0.3 1020467
15:00+4св2396100 0.8 1020516
18:00+3всв2298100 0.3 1020187
21:00+3в2299100 0.6 1020212
14 апреля, ср
ср1400:00+3юв1195100 0.5 1017487
03:00+2зсз1297100 3.4 1017217
06:00+2зсз129292 1.1 1017249
09:00+6ссз237196 1.1 1015777
12:00+4с3392100 0.1 1016566
15:00+4с2395100 0.4 1017470
18:00+4ссз239295 0.1 1017358
21:00+2зсз239596 0.2 101858
15 апреля, чт
чт1500:00+2зсз229298 0.0 101834
03:00+1зюз228712 0.0 101712
06:00+1юз227251 0.0 101725
09:00+7с225346 0.0 1014739
12:00+11ссв34475 0.0 10121367
15:00+11ссв335378 0.1 10121153
18:00+8ссв226599 0.6 1014622
21:00+6юв1282100 0.9 1016277